User: anonymous   Login
Location: Unspecified
(0.0000°N, 0.0000°E)
Time: 00:26:13
(UTC+00:00)
Language:

USA 72 - Orbit

View from above orbital plane
View from above orbital plane
View from above satellite
View from above satellite

Ground track
Ground track

The orbit data is extracted from the following two-line orbital elements,

1 21775U 91076A   16364.82442949 0.00000000  00000-0  00000-0 0    00
2 21775  63.3257 194.3172 3348958 269.0998  53.0891  5.53395112    00
Epoch (UTC): 29 December 2016 19:47:10
Eccentricity: 0.3348958
inclination: 63.3257°
perigee height: 2601 km
apogee height: 11645 km
right ascension of ascending node: 194.3172°
argument of perigee: 269.0998°
revolutions per day: 5.53395112
mean anomaly at epoch: 53.0891°
orbit number at epoch: 0

The dashed part of the orbit path shows where the satellite is in the earth's shadow,  

DLR